SIRIUSSAT-2 (43596 NORAD) Tracking and Keplerian Element Data

This shows tracking and keplerian element data for the satellite.

Feedback or suggestion? Click here.




ElementValue
Catalog43596
NameSIRIUSSAT-2
Epoch Orbit1439
Epoch Day320.22602669
Epoch Year2018
RAAN340.2344
Inclination51.6408
Eccentricity0.0005112
Argument of Perigee30.4902
Mean Anonmoly329.6385
Mean Motion15.56005599
Decay Rate8.657E-05
L11 43596U 98067PH 18320.22602669 .00008657 00000-0 12882-3 0 9994
L22 43596 51.6408 340.2344 0005112 30.4902 329.6385 15.56005599 14398

Live tracking and technical data element details for SIRIUSSAT-2 (NORAD 43596). SIRIUSSAT-2 can be tracked NOW for your location showing map with azimuth and elevation plus other details from your city location.

Track the satellite on the map from your city or location and see movement details for azimuth, elevation, latitude, longitude, range, height, and movement on the map or in text.







IsCatalogInMostPopularTable: catalog: 43596, numindb: 37
Update: records affected: 1



GetName: 43596 SIRIUSSAT-2

Hit Count: updated at: Sat, 17 Nov 2018 02:50:02 GMT